Time,TemperatureF,DewpointF,PressureIn,WindDirection,WindDirectionDegrees,WindSpeedMPH,WindSpeedGustMPH,Humidity,HourlyPrecipIn,Conditions,Clouds,dailyrainin,SoftwareType,DateUTC
2013-07-05 00:01:00,65.1,61.5,30.09,WNW,290,0.0,0.0,88,0.00,,,0.00,Wunderground v.1.15,2013-07-05 04:01:00,
2013-07-05 00:02:00,65.1,61.5,30.09,WNW,290,0.0,0.0,88,0.00,,,0.00,Wunderground v.1.15,2013-07-05 04:02:00,
2013-07-05 00:03:00,65.1,61.5,30.09,WNW,290,0.0,0.0,88,0.00,,,0.00,Wunderground v.1.15,2013-07-05 04:03:00,
2013-07-05 00:07:00,65.1,61.5,30.09,WNW,290,0.0,0.0,88,0.00,,,0.00,Wunderground v.1.15,2013-07-05 04:07:00,
2013-07-05 00:09:00,65.1,61.5,30.09,WNW,290,0.0,0.0,88,0.00,,,0.00,Wunderground v.1.15,2013-07-05 04:09:00,
2013-07-05 00:14:00,65.1,61.8,30.09,WNW,290,0.0,0.0,89,0.00,,,0.00,Wunderground v.1.15,2013-07-05 04:14:00,
2013-07-05 00:20:00,65.0,61.7,30.09,WNW,290,0.0,0.0,89,0.00,,,0.00,Wunderground v.1.15,2013-07-05 04:20:00,
2013-07-05 00:26:00,64.9,61.6,30.09,WNW,290,0.0,0.0,89,0.00,,,0.00,Wunderground v.1.15,2013-07-05 04:26:00,
2013-07-05 00:31:00,64.9,61.9,30.09,WNW,290,0.0,0.0,90,0.00,,,0.00,Wunderground v.1.15,2013-07-05 04:31:00,
2013-07-05 00:37:00,64.8,61.8,30.10,WNW,290,0.0,0.0,90,0.00,,,0.00,Wunderground v.1.15,2013-07-05 04:37:00,
2013-07-05 00:43:00,64.8,61.8,30.10,WNW,290,0.0,0.0,90,0.00,,,0.00,Wunderground v.1.15,2013-07-05 04:43:00,
2013-07-05 00:49:00,64.8,61.8,30.10,WNW,290,0.0,0.0,90,0.00,,,0.00,Wunderground v.1.15,2013-07-05 04:49:00,
2013-07-05 00:55:00,64.8,61.8,30.09,WNW,290,0.0,0.0,90,0.00,,,0.00,Wunderground v.1.15,2013-07-05 04:55:00,
2013-07-05 01:01:00,64.8,61.8,30.09,WNW,290,0.0,0.0,90,0.00,,,0.00,Wunderground v.1.15,2013-07-05 05:01:00,
2013-07-05 01:06:00,64.8,61.8,30.10,WNW,290,0.0,0.0,90,0.00,,,0.00,Wunderground v.1.15,2013-07-05 05:06:00,
2013-07-05 01:12:00,64.8,61.8,30.10,WNW,290,0.0,0.0,90,0.00,,,0.00,Wunderground v.1.15,2013-07-05 05:12:00,
2013-07-05 01:17:00,64.9,61.9,30.10,WNW,290,0.0,0.0,90,0.00,,,0.00,Wunderground v.1.15,2013-07-05 05:17:00,
2013-07-05 01:23:00,65.0,62.0,30.10,WNW,290,0.0,0.0,90,0.00,,,0.00,Wunderground v.1.15,2013-07-05 05:23:00,
2013-07-05 01:29:00,65.1,62.1,30.10,WNW,290,0.0,0.0,90,0.00,,,0.00,Wunderground v.1.15,2013-07-05 05:29:00,
2013-07-05 01:34:00,65.2,62.2,30.10,WNW,290,0.0,0.0,90,0.00,,,0.00,Wunderground v.1.15,2013-07-05 05:34:00,
2013-07-05 01:40:00,65.1,62.1,30.09,WNW,290,0.0,0.0,90,0.00,,,0.00,Wunderground v.1.15,2013-07-05 05:40:00,
2013-07-05 01:45:00,65.1,62.1,30.09,WNW,290,0.0,0.0,90,0.00,,,0.00,Wunderground v.1.15,2013-07-05 05:45:00,
2013-07-05 01:50:00,65.2,62.2,30.09,WNW,290,0.0,0.0,90,0.00,,,0.00,Wunderground v.1.15,2013-07-05 05:50:00,
2013-07-05 01:55:00,65.2,62.2,30.09,WNW,290,0.0,0.0,90,0.00,,,0.00,Wunderground v.1.15,2013-07-05 05:55:00,
2013-07-05 02:01:00,65.0,61.7,30.09,WNW,290,0.0,0.0,89,0.00,,,0.00,Wunderground v.1.15,2013-07-05 06:01:00,
2013-07-05 02:06:00,65.0,61.7,30.09,WNW,290,0.0,0.0,89,0.00,,,0.00,Wunderground v.1.15,2013-07-05 06:06:00,
2013-07-05 02:12:00,65.1,62.1,30.08,WNW,290,0.0,0.0,90,0.00,,,0.00,Wunderground v.1.15,2013-07-05 06:12:00,
2013-07-05 02:17:00,65.2,61.9,30.08,WNW,290,0.0,0.0,89,0.00,,,0.00,Wunderground v.1.15,2013-07-05 06:17:00,
2013-07-05 02:23:00,65.3,62.0,30.08,WNW,290,0.0,0.0,89,0.00,,,0.00,Wunderground v.1.15,2013-07-05 06:23:00,
2013-07-05 02:29:00,65.3,62.3,30.08,WNW,290,0.0,0.0,90,0.00,,,0.00,Wunderground v.1.15,2013-07-05 06:29:00,
2013-07-05 02:34:00,65.3,62.0,30.08,WNW,290,0.0,0.0,89,0.00,,,0.00,Wunderground v.1.15,2013-07-05 06:34:00,
2013-07-05 02:39:00,65.3,62.0,30.08,WNW,290,0.0,0.0,89,0.00,,,0.00,Wunderground v.1.15,2013-07-05 06:39:00,
2013-07-05 02:44:00,65.4,62.1,30.08,WNW,290,0.0,0.0,89,0.00,,,0.00,Wunderground v.1.15,2013-07-05 06:44:00,
2013-07-05 02:50:00,65.4,62.1,30.08,WNW,290,0.0,0.0,89,0.00,,,0.00,Wunderground v.1.15,2013-07-05 06:50:00,
2013-07-05 02:55:00,65.4,62.4,30.08,WNW,290,0.0,0.0,90,0.00,,,0.00,Wunderground v.1.15,2013-07-05 06:55:00,
2013-07-05 03:01:00,65.5,62.2,30.08,WNW,290,0.0,0.0,89,0.00,,,0.00,Wunderground v.1.15,2013-07-05 07:01:00,
2013-07-05 03:06:00,65.6,62.6,30.08,WNW,290,0.0,0.0,90,0.00,,,0.00,Wunderground v.1.15,2013-07-05 07:06:00,
2013-07-05 03:12:00,65.6,62.6,30.08,WNW,290,0.0,0.0,90,0.00,,,0.00,Wunderground v.1.15,2013-07-05 07:12:00,
2013-07-05 03:17:00,65.6,62.6,30.08,WNW,290,0.0,0.0,90,0.00,,,0.00,Wunderground v.1.15,2013-07-05 07:17:00,
2013-07-05 03:23:00,65.7,62.7,30.08,WNW,290,0.0,0.0,90,0.00,,,0.00,Wunderground v.1.15,2013-07-05 07:23:00,
2013-07-05 03:29:00,65.7,62.7,30.08,WNW,290,0.0,0.0,90,0.00,,,0.00,Wunderground v.1.15,2013-07-05 07:29:00,
2013-07-05 03:35:00,65.6,62.6,30.08,WNW,290,0.0,0.0,90,0.00,,,0.00,Wunderground v.1.15,2013-07-05 07:35:00,
2013-07-05 03:41:00,65.6,62.6,30.08,WNW,290,0.0,0.0,90,0.00,,,0.00,Wunderground v.1.15,2013-07-05 07:41:00,
2013-07-05 03:46:00,65.6,62.6,30.08,WNW,290,0.0,0.0,90,0.00,,,0.00,Wunderground v.1.15,2013-07-05 07:46:00,
2013-07-05 03:52:00,65.6,62.6,30.08,WNW,290,0.0,0.0,90,0.00,,,0.00,Wunderground v.1.15,2013-07-05 07:52:00,
2013-07-05 03:57:00,65.6,62.6,30.07,WNW,290,0.0,0.0,90,0.00,,,0.00,Wunderground v.1.15,2013-07-05 07:57:00,
2013-07-05 04:03:00,65.6,62.6,30.07,WNW,290,0.0,0.0,90,0.00,,,0.00,Wunderground v.1.15,2013-07-05 08:03:00,
2013-07-05 04:09:00,65.6,62.6,30.07,WNW,290,0.0,0.0,90,0.00,,,0.00,Wunderground v.1.15,2013-07-05 08:09:00,
2013-07-05 04:14:00,65.6,62.6,30.07,WNW,290,0.0,0.0,90,0.00,,,0.00,Wunderground v.1.15,2013-07-05 08:14:00,
2013-07-05 04:20:00,65.6,62.6,30.07,WNW,290,0.0,0.0,90,0.00,,,0.00,Wunderground v.1.15,2013-07-05 08:20:00,
2013-07-05 04:25:00,65.6,62.6,30.07,WNW,290,0.0,0.0,90,0.00,,,0.00,Wunderground v.1.15,2013-07-05 08:25:00,
2013-07-05 04:30:00,65.6,62.9,30.07,WNW,290,0.0,0.0,91,0.00,,,0.00,Wunderground v.1.15,2013-07-05 08:30:00,
2013-07-05 04:35:00,65.6,62.6,30.07,WNW,290,0.0,0.0,90,0.00,,,0.00,Wunderground v.1.15,2013-07-05 08:35:00,
2013-07-05 04:40:00,65.6,62.9,30.07,WNW,290,0.0,0.0,91,0.00,,,0.00,Wunderground v.1.15,2013-07-05 08:40:00,
2013-07-05 04:46:00,65.6,62.9,30.07,WNW,290,0.0,0.0,91,0.00,,,0.00,Wunderground v.1.15,2013-07-05 08:46:00,
2013-07-05 04:52:00,65.6,62.9,30.07,WNW,290,0.0,0.0,91,0.00,,,0.00,Wunderground v.1.15,2013-07-05 08:52:00,
2013-07-05 04:58:00,65.5,62.8,30.08,WNW,290,0.0,0.0,91,0.00,,,0.00,Wunderground v.1.15,2013-07-05 08:58:00,
2013-07-05 05:03:00,65.4,62.7,30.08,WNW,290,0.0,0.0,91,0.00,,,0.00,Wunderground v.1.15,2013-07-05 09:03:00,
2013-07-05 05:09:00,65.4,62.7,30.08,WNW,290,0.0,0.0,91,0.00,,,0.00,Wunderground v.1.15,2013-07-05 09:09:00,
2013-07-05 05:15:00,65.4,62.4,30.08,WNW,290,0.0,0.0,90,0.00,,,0.00,Wunderground v.1.15,2013-07-05 09:15:00,
2013-07-05 05:22:00,65.4,62.4,30.08,WNW,290,0.0,0.0,90,0.00,,,0.00,Wunderground v.1.15,2013-07-05 09:22:00,
2013-07-05 05:28:00,65.4,62.7,30.08,WNW,290,0.0,0.0,91,0.00,,,0.00,Wunderground v.1.15,2013-07-05 09:28:00,
2013-07-05 05:33:00,65.4,62.7,30.08,WNW,290,0.0,0.0,91,0.00,,,0.00,Wunderground v.1.15,2013-07-05 09:33:00,
2013-07-05 05:39:00,65.4,62.7,30.08,WNW,290,0.0,0.0,91,0.00,,,0.00,Wunderground v.1.15,2013-07-05 09:39:00,
2013-07-05 05:44:00,65.4,62.7,30.07,WNW,290,0.0,0.0,91,0.00,,,0.00,Wunderground v.1.15,2013-07-05 09:44:00,
2013-07-05 05:50:00,65.4,62.7,30.08,WNW,290,0.0,0.0,91,0.00,,,0.00,Wunderground v.1.15,2013-07-05 09:50:00,
2013-07-05 05:55:00,65.4,62.7,30.08,WNW,290,0.0,0.0,91,0.00,,,0.00,Wunderground v.1.15,2013-07-05 09:55:00,
2013-07-05 06:01:00,65.4,63.0,30.08,WNW,290,0.0,0.0,92,0.00,,,0.00,Wunderground v.1.15,2013-07-05 10:01:00,
2013-07-05 06:06:00,65.4,63.0,30.08,WNW,290,0.0,0.0,92,0.00,,,0.00,Wunderground v.1.15,2013-07-05 10:06:00,
2013-07-05 06:11:00,65.4,63.0,30.09,WNW,290,0.0,0.0,92,0.00,,,0.00,Wunderground v.1.15,2013-07-05 10:11:00,
2013-07-05 06:16:00,65.4,63.0,30.09,WNW,290,0.0,1.0,92,0.00,,,0.00,Wunderground v.1.15,2013-07-05 10:16:00,
2013-07-05 06:22:00,65.4,63.0,30.09,WNW,290,0.0,0.0,92,0.00,,,0.00,Wunderground v.1.15,2013-07-05 10:22:00,
2013-07-05 06:27:00,65.4,63.0,30.09,WNW,290,0.0,0.0,92,0.00,,,0.00,Wunderground v.1.15,2013-07-05 10:27:00,
2013-07-05 06:32:00,65.4,63.0,30.09,WNW,290,0.0,0.0,92,0.00,,,0.00,Wunderground v.1.15,2013-07-05 10:32:00,
2013-07-05 06:38:00,65.4,63.0,30.09,WNW,290,0.0,0.0,92,0.00,,,0.00,Wunderground v.1.15,2013-07-05 10:38:00,
2013-07-05 06:43:00,65.4,63.0,30.09,WNW,290,0.0,0.0,92,0.00,,,0.00,Wunderground v.1.15,2013-07-05 10:43:00,
2013-07-05 06:48:00,65.4,63.0,30.09,WNW,290,0.0,0.0,92,0.00,,,0.00,Wunderground v.1.15,2013-07-05 10:48:00,
2013-07-05 06:53:00,65.5,63.1,30.09,WNW,290,0.0,0.0,92,0.00,,,0.00,Wunderground v.1.15,2013-07-05 10:53:00,
2013-07-05 06:59:00,65.5,63.1,30.09,WNW,290,0.0,0.0,92,0.00,,,0.00,Wunderground v.1.15,2013-07-05 10:59:00,
2013-07-05 07:04:00,65.5,63.1,30.09,WNW,290,0.0,0.0,92,0.00,,,0.00,Wunderground v.1.15,2013-07-05 11:04:00,
2013-07-05 07:10:00,65.6,63.2,30.09,WNW,290,0.0,0.0,92,0.00,,,0.00,Wunderground v.1.15,2013-07-05 11:10:00,
2013-07-05 07:15:00,65.7,63.6,30.09,WNW,290,0.0,0.0,93,0.00,,,0.00,Wunderground v.1.15,2013-07-05 11:15:00,
2013-07-05 07:21:00,65.8,63.7,30.09,WNW,290,0.0,0.0,93,0.00,,,0.00,Wunderground v.1.15,2013-07-05 11:21:00,
2013-07-05 07:27:00,66.0,63.9,30.09,WNW,288,0.0,0.0,93,0.00,,,0.00,Wunderground v.1.15,2013-07-05 11:27:00,
2013-07-05 07:32:00,66.1,64.0,30.09,WNW,288,0.0,0.0,93,0.00,,,0.00,Wunderground v.1.15,2013-07-05 11:32:00,
2013-07-05 07:37:00,66.3,64.2,30.09,WNW,288,0.0,0.0,93,0.00,,,0.00,Wunderground v.1.15,2013-07-05 11:37:00,
2013-07-05 07:43:00,66.5,64.4,30.09,WNW,288,0.0,0.0,93,0.00,,,0.00,Wunderground v.1.15,2013-07-05 11:43:00,
2013-07-05 07:49:00,66.7,64.6,30.09,SSW,213,0.0,0.0,93,0.00,,,0.00,Wunderground v.1.15,2013-07-05 11:49:00,
2013-07-05 07:54:00,66.8,64.7,30.09,SSW,213,0.0,0.0,93,0.00,,,0.00,Wunderground v.1.15,2013-07-05 11:54:00,
2013-07-05 07:59:00,67.0,64.9,30.09,SSW,213,0.0,0.0,93,0.00,,,0.00,Wunderground v.1.15,2013-07-05 11:59:00,
2013-07-05 08:05:00,67.3,65.2,30.09,SSW,213,0.0,0.0,93,0.00,,,0.00,Wunderground v.1.15,2013-07-05 12:05:00,
2013-07-05 08:10:00,67.5,65.1,30.09,SSW,213,0.0,0.0,92,0.00,,,0.00,Wunderground v.1.15,2013-07-05 12:10:00,
2013-07-05 08:15:00,67.8,65.4,30.09,SSW,213,0.0,0.0,92,0.00,,,0.00,Wunderground v.1.15,2013-07-05 12:15:00,
2013-07-05 08:21:00,68.0,65.3,30.09,SSW,213,0.0,0.0,91,0.00,,,0.00,Wunderground v.1.15,2013-07-05 12:21:00,
2013-07-05 08:26:00,68.2,65.2,30.09,SSW,213,0.0,0.0,90,0.00,,,0.00,Wunderground v.1.15,2013-07-05 12:26:00,
2013-07-05 08:31:00,68.5,65.4,30.09,SSW,213,0.0,0.0,90,0.00,,,0.00,Wunderground v.1.15,2013-07-05 12:31:00,
2013-07-05 08:37:00,68.7,65.3,30.09,SW,215,0.0,0.0,89,0.00,,,0.00,Wunderground v.1.15,2013-07-05 12:37:00,
2013-07-05 08:42:00,68.8,65.1,30.09,SW,215,0.0,0.0,88,0.00,,,0.00,Wunderground v.1.15,2013-07-05 12:42:00,
2013-07-05 08:48:00,69.3,65.3,30.10,SW,215,0.0,0.0,87,0.00,,,0.00,Wunderground v.1.15,2013-07-05 12:48:00,
2013-07-05 08:53:00,69.7,65.3,30.10,SW,215,0.0,0.0,86,0.00,,,0.00,Wunderground v.1.15,2013-07-05 12:53:00,
2013-07-05 08:58:00,70.0,65.6,30.10,SW,215,0.0,0.0,86,0.00,,,0.00,Wunderground v.1.15,2013-07-05 12:58:00,
2013-07-05 09:03:00,70.4,65.7,30.10,SW,215,0.0,0.0,85,0.00,,,0.00,Wunderground v.1.15,2013-07-05 13:03:00,
2013-07-05 09:09:00,70.8,65.0,30.10,SW,215,0.0,0.0,82,0.00,,,0.00,Wunderground v.1.15,2013-07-05 13:09:00,
2013-07-05 09:14:00,71.1,64.3,30.10,SW,217,0.0,0.0,79,0.00,,,0.00,Wunderground v.1.15,2013-07-05 13:14:00,
2013-07-05 09:20:00,71.6,64.7,30.11,SW,217,0.0,0.0,79,0.00,,,0.00,Wunderground v.1.15,2013-07-05 13:20:00,
2013-07-05 09:25:00,72.0,64.0,30.11,SW,217,0.0,0.0,76,0.00,,,0.00,Wunderground v.1.15,2013-07-05 13:25:00,
2013-07-05 09:31:00,72.8,64.4,30.11,SW,217,0.0,0.0,75,0.00,,,0.00,Wunderground v.1.15,2013-07-05 13:31:00,
2013-07-05 09:37:00,73.9,65.1,30.11,SW,217,0.0,0.0,74,0.00,,,0.00,Wunderground v.1.15,2013-07-05 13:37:00,
2013-07-05 09:43:00,74.6,64.6,30.11,SSW,211,0.0,3.0,71,0.00,,,0.00,Wunderground v.1.15,2013-07-05 13:43:00,
2013-07-05 09:49:00,74.8,65.2,30.10,SSW,210,0.0,3.0,72,0.00,,,0.00,Wunderground v.1.15,2013-07-05 13:49:00,
2013-07-05 09:54:00,74.8,64.8,30.11,SW,217,0.0,2.0,71,0.00,,,0.00,Wunderground v.1.15,2013-07-05 13:54:00,
2013-07-05 10:00:00,74.7,65.1,30.11,SW,234,0.0,0.0,72,0.00,,,0.00,Wunderground v.1.15,2013-07-05 14:00:00,
2013-07-05 10:05:00,74.8,65.6,30.11,WSW,240,0.0,0.0,73,0.00,,,0.00,Wunderground v.1.15,2013-07-05 14:05:00,
2013-07-05 10:10:00,75.0,64.5,30.11,WSW,245,0.0,0.0,70,0.00,,,0.00,Wunderground v.1.15,2013-07-05 14:10:00,
2013-07-05 10:16:00,75.3,64.8,30.11,WNW,300,1.0,3.0,70,0.00,,,0.00,Wunderground v.1.15,2013-07-05 14:16:00,
2013-07-05 10:22:00,75.2,64.3,30.11,NW,317,1.0,3.0,69,0.00,,,0.00,Wunderground v.1.15,2013-07-05 14:22:00,
2013-07-05 10:27:00,75.2,64.7,30.12,NW,317,1.0,3.0,70,0.00,,,0.00,Wunderground v.1.15,2013-07-05 14:27:00,
2013-07-05 10:33:00,75.2,64.7,30.11,NW,317,0.0,0.0,70,0.00,,,0.00,Wunderground v.1.15,2013-07-05 14:33:00,
2013-07-05 10:39:00,75.3,64.0,30.12,NW,317,0.0,0.0,68,0.00,,,0.00,Wunderground v.1.15,2013-07-05 14:39:00,
2013-07-05 10:44:00,75.5,63.8,30.12,NW,317,0.0,0.0,67,0.00,,,0.00,Wunderground v.1.15,2013-07-05 14:44:00,
2013-07-05 10:50:00,75.6,65.1,30.12,NW,317,0.0,0.0,70,0.00,,,0.00,Wunderground v.1.15,2013-07-05 14:50:00,
2013-07-05 10:55:00,75.6,65.1,30.12,NW,317,0.0,0.0,70,0.00,,,0.00,Wunderground v.1.15,2013-07-05 14:55:00,
2013-07-05 11:01:00,75.7,65.2,30.12,NW,317,0.0,0.0,70,0.00,,,0.00,Wunderground v.1.15,2013-07-05 15:01:00,
2013-07-05 11:07:00,75.7,65.6,30.12,NW,317,0.0,0.0,71,0.00,,,0.00,Wunderground v.1.15,2013-07-05 15:07:00,
2013-07-05 11:12:00,75.8,64.9,30.12,NW,317,0.0,0.0,69,0.00,,,0.00,Wunderground v.1.15,2013-07-05 15:12:00,
2013-07-05 11:18:00,75.8,64.5,30.12,NW,317,0.0,0.0,68,0.00,,,0.00,Wunderground v.1.15,2013-07-05 15:18:00,
2013-07-05 11:23:00,76.0,64.7,30.12,NW,318,0.0,2.0,68,0.00,,,0.00,Wunderground v.1.15,2013-07-05 15:23:00,
2013-07-05 11:29:00,76.4,65.1,30.12,NW,317,0.0,2.0,68,0.00,,,0.00,Wunderground v.1.15,2013-07-05 15:29:00,
2013-07-05 11:34:00,76.5,65.1,30.12,NW,317,0.0,0.0,68,0.00,,,0.00,Wunderground v.1.15,2013-07-05 15:34:00,
2013-07-05 11:40:00,76.8,64.6,30.11,NW,317,0.0,0.0,66,0.00,,,0.00,Wunderground v.1.15,2013-07-05 15:40:00,
2013-07-05 11:45:00,77.3,65.5,30.11,NW,317,0.0,0.0,67,0.00,,,0.00,Wunderground v.1.15,2013-07-05 15:45:00,
2013-07-05 11:50:00,77.9,65.6,30.11,NW,317,0.0,0.0,66,0.00,,,0.00,Wunderground v.1.15,2013-07-05 15:50:00,
2013-07-05 11:53:00,78.1,65.8,30.11,NW,317,0.0,0.0,66,0.00,,,0.00,Wunderground v.1.15,2013-07-05 15:53:00,
2013-07-05 11:59:00,78.3,66.0,30.11,NNW,342,0.0,5.0,66,0.00,,,0.00,Wunderground v.1.15,2013-07-05 15:59:00,
2013-07-05 12:04:00,78.7,65.0,30.11,NNW,344,1.0,3.0,63,0.00,,,0.00,Wunderground v.1.15,2013-07-05 16:04:00,
2013-07-05 12:10:00,78.7,63.6,30.11,NNW,344,1.0,1.0,60,0.00,,,0.00,Wunderground v.1.15,2013-07-05 16:10:00,
2013-07-05 12:15:00,79.0,64.4,30.10,NNW,344,0.0,1.0,61,0.00,,,0.00,Wunderground v.1.15,2013-07-05 16:15:00,
2013-07-05 12:21:00,79.4,64.8,30.11,ENE,72,1.0,3.0,61,0.00,,,0.00,Wunderground v.1.15,2013-07-05 16:21:00,
2013-07-05 12:26:00,79.6,65.9,30.11,ENE,75,1.0,3.0,63,0.00,,,0.00,Wunderground v.1.15,2013-07-05 16:26:00,
2013-07-05 12:31:00,79.9,65.7,30.11,ENE,75,0.0,0.0,62,0.00,,,0.00,Wunderground v.1.15,2013-07-05 16:31:00,
2013-07-05 12:37:00,79.8,65.2,30.10,ENE,74,0.0,1.0,61,0.00,,,0.00,Wunderground v.1.15,2013-07-05 16:37:00,
2013-07-05 12:43:00,80.1,65.0,30.10,ENE,60,0.0,3.0,60,0.00,,,0.00,Wunderground v.1.15,2013-07-05 16:43:00,
2013-07-05 12:49:00,80.2,63.6,30.10,ENE,78,1.0,3.0,57,0.00,,,0.00,Wunderground v.1.15,2013-07-05 16:49:00,
2013-07-05 12:54:00,80.4,65.7,30.10,ENE,78,1.0,1.0,61,0.00,,,0.00,Wunderground v.1.15,2013-07-05 16:54:00,
2013-07-05 13:00:00,80.3,66.1,30.10,ENE,74,0.0,2.0,62,0.00,,,0.00,Wunderground v.1.15,2013-07-05 17:00:00,
2013-07-05 13:05:00,80.7,64.5,30.10,ENE,68,1.0,4.0,58,0.00,,,0.00,Wunderground v.1.15,2013-07-05 17:05:00,
2013-07-05 13:11:00,80.8,64.6,30.10,SE,143,1.0,1.0,58,0.00,,,0.00,Wunderground v.1.15,2013-07-05 17:11:00,
2013-07-05 13:15:00,80.7,66.5,30.10,SE,133,1.0,1.0,62,0.00,,,0.00,Wunderground v.1.15,2013-07-05 17:15:00,
2013-07-05 13:21:00,80.6,67.3,30.10,West,270,0.0,1.0,64,0.00,,,0.00,Wunderground v.1.15,2013-07-05 17:21:00,
2013-07-05 13:26:00,80.5,63.9,30.10,West,276,0.0,1.0,57,0.00,,,0.00,Wunderground v.1.15,2013-07-05 17:26:00,
2013-07-05 13:31:00,80.7,64.5,30.10,West,276,0.0,0.0,58,0.00,,,0.00,Wunderground v.1.15,2013-07-05 17:31:00,
2013-07-05 13:37:00,80.5,64.9,30.10,NE,34,1.0,5.0,59,0.00,,,0.00,Wunderground v.1.15,2013-07-05 17:37:00,
2013-07-05 13:43:00,80.3,63.7,30.10,NE,46,1.0,2.0,57,0.00,,,0.00,Wunderground v.1.15,2013-07-05 17:43:00,
2013-07-05 13:49:00,80.7,63.5,30.10,NE,53,1.0,3.0,56,0.00,,,0.00,Wunderground v.1.15,2013-07-05 17:49:00,
2013-07-05 13:54:00,80.9,64.2,30.10,NE,41,1.0,3.0,57,0.00,,,0.00,Wunderground v.1.15,2013-07-05 17:54:00,
2013-07-05 14:00:00,80.7,63.5,30.10,North,355,2.0,2.0,56,0.00,,,0.00,Wunderground v.1.15,2013-07-05 18:00:00,
2013-07-05 14:05:00,80.6,65.4,30.10,North,355,1.0,2.0,60,0.00,,,0.00,Wunderground v.1.15,2013-07-05 18:05:00,
2013-07-05 14:10:00,80.5,64.9,30.10,North,355,0.0,1.0,59,0.00,,,0.00,Wunderground v.1.15,2013-07-05 18:10:00,
2013-07-05 14:15:00,80.5,65.8,30.10,North,360,1.0,2.0,61,0.00,,,0.00,Wunderground v.1.15,2013-07-05 18:15:00,
2013-07-05 14:17:00,80.6,64.9,30.10,North,10,1.0,3.0,59,0.00,,,0.00,Wunderground v.1.15,2013-07-05 18:17:00,
2013-07-05 14:23:00,80.7,64.1,30.10,NE,52,2.0,2.0,57,0.00,,,0.00,Wunderground v.1.15,2013-07-05 18:23:00,
2013-07-05 14:29:00,80.6,64.9,30.10,NE,51,1.0,2.0,59,0.00,,,0.00,Wunderground v.1.15,2013-07-05 18:29:00,
2013-07-05 14:34:00,80.5,63.9,30.09,NE,51,0.0,1.0,57,0.00,,,0.00,Wunderground v.1.15,2013-07-05 18:34:00,
2013-07-05 14:40:00,80.7,64.1,30.09,NE,51,0.0,0.0,57,0.00,,,0.00,Wunderground v.1.15,2013-07-05 18:40:00,
2013-07-05 14:43:00,80.7,64.5,30.10,NE,51,0.0,0.0,58,0.00,,,0.00,Wunderground v.1.15,2013-07-05 18:43:00,
2013-07-05 14:49:00,81.4,67.1,30.09,NE,51,0.0,1.0,62,0.00,,,0.00,Wunderground v.1.15,2013-07-05 18:49:00,
2013-07-05 14:54:00,82.0,65.8,30.09,WNW,286,0.0,4.0,58,0.00,,,0.00,Wunderground v.1.15,2013-07-05 18:54:00,
2013-07-05 14:59:00,81.7,65.5,30.09,WNW,290,1.0,4.0,58,0.00,,,0.00,Wunderground v.1.15,2013-07-05 18:59:00,
2013-07-05 15:04:00,81.7,66.9,30.09,WNW,290,1.0,1.0,61,0.00,,,0.00,Wunderground v.1.15,2013-07-05 19:04:00,
2013-07-05 15:07:00,81.8,66.6,30.09,NNW,338,0.0,4.0,60,0.00,,,0.00,Wunderground v.1.15,2013-07-05 19:07:00,
2013-07-05 15:13:00,81.7,65.0,30.09,NNW,339,1.0,1.0,57,0.00,,,0.00,Wunderground v.1.15,2013-07-05 19:13:00,
2013-07-05 15:19:00,81.8,65.1,30.09,NNW,329,0.0,2.0,57,0.00,,,0.00,Wunderground v.1.15,2013-07-05 19:19:00,
2013-07-05 15:25:00,82.0,64.8,30.08,NNW,329,0.0,0.0,56,0.00,,,0.00,Wunderground v.1.15,2013-07-05 19:25:00,
2013-07-05 15:31:00,82.4,66.1,30.08,NNW,329,0.0,1.0,58,0.00,,,0.00,Wunderground v.1.15,2013-07-05 19:31:00,
2013-07-05 15:36:00,82.9,65.1,30.08,NNE,12,1.0,3.0,55,0.00,,,0.00,Wunderground v.1.15,2013-07-05 19:36:00,
2013-07-05 15:42:00,82.6,65.8,30.08,NNE,12,1.0,2.0,57,0.00,,,0.00,Wunderground v.1.15,2013-07-05 19:42:00,
2013-07-05 15:47:00,82.6,65.8,30.08,North,11,0.0,2.0,57,0.00,,,0.00,Wunderground v.1.15,2013-07-05 19:47:00,
2013-07-05 15:53:00,82.9,65.6,30.08,NE,38,0.0,0.0,56,0.00,,,0.00,Wunderground v.1.15,2013-07-05 19:53:00,
2013-07-05 15:59:00,83.1,65.8,30.07,NE,37,0.0,0.0,56,0.00,,,0.00,Wunderground v.1.15,2013-07-05 19:59:00,
2013-07-05 16:04:00,83.2,64.8,30.08,NE,38,0.0,0.0,54,0.00,,,0.00,Wunderground v.1.15,2013-07-05 20:04:00,
2013-07-05 16:09:00,83.3,65.4,30.07,SW,223,0.0,0.0,55,0.00,,,0.00,Wunderground v.1.15,2013-07-05 20:09:00,
2013-07-05 16:13:00,83.3,67.0,30.08,SSW,206,1.0,1.0,58,0.00,,,0.00,Wunderground v.1.15,2013-07-05 20:13:00,
2013-07-05 16:19:00,83.4,65.0,30.07,SSW,207,1.0,5.0,54,0.00,,,0.00,Wunderground v.1.15,2013-07-05 20:19:00,
2013-07-05 16:24:00,83.4,64.5,30.07,SSW,206,1.0,4.0,53,0.00,,,0.00,Wunderground v.1.15,2013-07-05 20:24:00,
2013-07-05 16:29:00,83.6,66.8,30.07,SSW,207,0.0,0.0,57,0.00,,,0.00,Wunderground v.1.15,2013-07-05 20:29:00,
2013-07-05 16:35:00,83.9,66.0,30.06,SSW,206,0.0,3.0,55,0.00,,,0.00,Wunderground v.1.15,2013-07-05 20:35:00,
2013-07-05 16:40:00,84.1,65.7,30.06,SSW,200,0.0,5.0,54,0.00,,,0.00,Wunderground v.1.15,2013-07-05 20:40:00,
2013-07-05 16:46:00,83.9,65.5,30.06,South,182,2.0,5.0,54,0.00,,,0.00,Wunderground v.1.15,2013-07-05 20:46:00,
2013-07-05 16:51:00,83.9,64.4,30.06,South,184,1.0,1.0,52,0.00,,,0.00,Wunderground v.1.15,2013-07-05 20:51:00,
2013-07-05 16:56:00,84.1,64.6,30.06,South,189,0.0,2.0,52,0.00,,,0.00,Wunderground v.1.15,2013-07-05 20:56:00,
2013-07-05 17:01:00,84.3,66.4,30.06,SSW,199,0.0,0.0,55,0.00,,,0.00,Wunderground v.1.15,2013-07-05 21:01:00,
2013-07-05 17:06:00,84.6,65.0,30.06,SSW,200,0.0,2.0,52,0.00,,,0.00,Wunderground v.1.15,2013-07-05 21:06:00,
2013-07-05 17:12:00,84.3,64.8,30.06,WNW,294,0.0,1.0,52,0.00,,,0.00,Wunderground v.1.15,2013-07-05 21:12:00,
2013-07-05 17:18:00,84.0,65.6,30.06,SSW,202,1.0,3.0,54,0.00,,,0.00,Wunderground v.1.15,2013-07-05 21:18:00,
2013-07-05 17:23:00,84.2,66.3,30.05,SSW,202,1.0,1.0,55,0.00,,,0.00,Wunderground v.1.15,2013-07-05 21:23:00,
2013-07-05 17:29:00,84.7,66.2,30.06,SSW,203,0.0,1.0,54,0.00,,,0.00,Wunderground v.1.15,2013-07-05 21:29:00,
2013-07-05 17:35:00,84.7,64.0,30.05,South,189,0.0,2.0,50,0.00,,,0.00,Wunderground v.1.15,2013-07-05 21:35:00,
2013-07-05 17:41:00,84.5,64.9,30.05,South,190,0.0,1.0,52,0.00,,,0.00,Wunderground v.1.15,2013-07-05 21:41:00,
2013-07-05 17:46:00,84.5,65.5,30.05,South,176,0.0,2.0,53,0.00,,,0.00,Wunderground v.1.15,2013-07-05 21:46:00,
2013-07-05 17:51:00,84.3,64.8,30.05,ESE,113,0.0,1.0,52,0.00,,,0.00,Wunderground v.1.15,2013-07-05 21:51:00,
2013-07-05 17:54:00,84.3,66.4,30.05,SE,138,0.0,1.0,55,0.00,,,0.00,Wunderground v.1.15,2013-07-05 21:54:00,
2013-07-05 17:59:00,84.4,64.9,30.05,SW,216,0.0,1.0,52,0.00,,,0.00,Wunderground v.1.15,2013-07-05 21:59:00,
2013-07-05 18:05:00,84.5,63.8,30.05,SSW,200,1.0,3.0,50,0.00,,,0.00,Wunderground v.1.15,2013-07-05 22:05:00,
2013-07-05 18:10:00,84.2,66.3,30.05,SSW,202,1.0,1.0,55,0.00,,,0.00,Wunderground v.1.15,2013-07-05 22:10:00,
2013-07-05 18:15:00,84.1,65.7,30.04,SSW,202,0.0,1.0,54,0.00,,,0.00,Wunderground v.1.15,2013-07-05 22:15:00,
2013-07-05 18:21:00,84.2,66.3,30.04,SSW,202,1.0,2.0,55,0.00,,,0.00,Wunderground v.1.15,2013-07-05 22:21:00,
2013-07-05 18:26:00,84.2,64.1,30.05,SSW,200,1.0,2.0,51,0.00,,,0.00,Wunderground v.1.15,2013-07-05 22:26:00,
2013-07-05 18:32:00,84.6,66.7,30.04,SSW,200,0.0,1.0,55,0.00,,,0.00,Wunderground v.1.15,2013-07-05 22:32:00,
2013-07-05 18:37:00,84.8,65.2,30.04,SSW,205,0.0,1.0,52,0.00,,,0.00,Wunderground v.1.15,2013-07-05 22:37:00,
2013-07-05 18:43:00,84.9,64.8,30.05,SW,229,0.0,0.0,51,0.00,,,0.00,Wunderground v.1.15,2013-07-05 22:43:00,
2013-07-05 18:49:00,84.8,66.3,30.05,SW,225,1.0,3.0,54,0.00,,,0.00,Wunderground v.1.15,2013-07-05 22:49:00,
2013-07-05 18:54:00,84.5,66.0,30.05,SW,216,1.0,1.0,54,0.00,,,0.00,Wunderground v.1.15,2013-07-05 22:54:00,
2013-07-05 19:00:00,84.3,64.8,30.05,SW,216,1.0,1.0,52,0.00,,,0.00,Wunderground v.1.15,2013-07-05 23:00:00,
2013-07-05 19:05:00,84.2,65.8,30.05,SW,215,0.0,1.0,54,0.00,,,0.00,Wunderground v.1.15,2013-07-05 23:05:00,
2013-07-05 19:11:00,84.0,64.5,30.04,SSW,213,1.0,2.0,52,0.00,,,0.00,Wunderground v.1.15,2013-07-05 23:11:00,
2013-07-05 19:16:00,83.8,65.4,30.04,SSW,210,1.0,3.0,54,0.00,,,0.00,Wunderground v.1.15,2013-07-05 23:16:00,
2013-07-05 19:22:00,83.7,65.3,30.04,SSW,210,0.0,1.0,54,0.00,,,0.00,Wunderground v.1.15,2013-07-05 23:22:00,
2013-07-05 19:27:00,83.8,66.4,30.04,SSW,210,0.0,1.0,56,0.00,,,0.00,Wunderground v.1.15,2013-07-05 23:27:00,
2013-07-05 19:32:00,83.4,65.5,30.04,SSW,210,0.0,0.0,55,0.00,,,0.00,Wunderground v.1.15,2013-07-05 23:32:00,
2013-07-05 19:37:00,83.1,65.3,30.04,SSW,210,0.0,0.0,55,0.00,,,0.00,Wunderground v.1.15,2013-07-05 23:37:00,
2013-07-05 19:43:00,82.5,65.2,30.04,SSW,210,0.0,0.0,56,0.00,,,0.00,Wunderground v.1.15,2013-07-05 23:43:00,
2013-07-05 19:49:00,82.0,65.3,30.04,SSW,210,0.0,0.0,57,0.00,,,0.00,Wunderground v.1.15,2013-07-05 23:49:00,
2013-07-05 19:54:00,81.6,64.9,30.04,SSW,210,0.0,0.0,57,0.00,,,0.00,Wunderground v.1.15,2013-07-05 23:54:00,
2013-07-05 20:00:00,81.3,65.1,30.04,SSW,210,0.0,1.0,58,0.00,,,0.00,Wunderground v.1.15,2013-07-06 00:00:00,
2013-07-05 20:05:00,81.0,65.3,30.04,SSW,210,0.0,1.0,59,0.00,,,0.00,Wunderground v.1.15,2013-07-06 00:05:00,
2013-07-05 20:11:00,80.5,64.9,30.05,SSW,210,0.0,0.0,59,0.00,,,0.00,Wunderground v.1.15,2013-07-06 00:11:00,
2013-07-05 20:16:00,80.1,65.9,30.05,SSW,210,0.0,0.0,62,0.00,,,0.00,Wunderground v.1.15,2013-07-06 00:16:00,
2013-07-05 20:22:00,79.7,65.1,30.04,SSW,210,0.0,0.0,61,0.00,,,0.00,Wunderground v.1.15,2013-07-06 00:22:00,
2013-07-05 20:28:00,79.2,65.5,30.04,SSW,210,0.0,0.0,63,0.00,,,0.00,Wunderground v.1.15,2013-07-06 00:28:00,
2013-07-05 20:33:00,78.7,66.4,30.05,SSW,210,0.0,0.0,66,0.00,,,0.00,Wunderground v.1.15,2013-07-06 00:33:00,
2013-07-05 20:39:00,78.2,65.9,30.05,SSW,210,0.0,0.0,66,0.00,,,0.00,Wunderground v.1.15,2013-07-06 00:39:00,
2013-07-05 20:44:00,77.8,66.0,30.06,WSW,251,0.0,0.0,67,0.00,,,0.00,Wunderground v.1.15,2013-07-06 00:44:00,
2013-07-05 20:49:00,77.5,65.7,30.05,WSW,251,0.0,0.0,67,0.00,,,0.00,Wunderground v.1.15,2013-07-06 00:49:00,
2013-07-05 20:55:00,77.3,65.9,30.06,WSW,251,0.0,1.0,68,0.00,,,0.00,Wunderground v.1.15,2013-07-06 00:55:00,
2013-07-05 21:01:00,77.0,65.6,30.06,WSW,251,0.0,0.0,68,0.00,,,0.00,Wunderground v.1.15,2013-07-06 01:01:00,
2013-07-05 21:06:00,76.8,65.4,30.05,WSW,251,0.0,0.0,68,0.00,,,0.00,Wunderground v.1.15,2013-07-06 01:06:00,
2013-07-05 21:12:00,76.4,66.3,30.06,WSW,251,0.0,0.0,71,0.00,,,0.00,Wunderground v.1.15,2013-07-06 01:12:00,
2013-07-05 21:17:00,76.1,66.4,30.06,WSW,251,0.0,0.0,72,0.00,,,0.00,Wunderground v.1.15,2013-07-06 01:17:00,
2013-07-05 21:21:00,75.8,66.1,30.06,WSW,251,0.0,0.0,72,0.00,,,0.00,Wunderground v.1.15,2013-07-06 01:21:00,
2013-07-05 21:27:00,75.5,66.2,30.06,WSW,251,0.0,0.0,73,0.00,,,0.00,Wunderground v.1.15,2013-07-06 01:27:00,
2013-07-05 21:32:00,75.1,66.2,30.06,WSW,250,0.0,0.0,74,0.00,,,0.00,Wunderground v.1.15,2013-07-06 01:32:00,
2013-07-05 21:39:00,74.7,65.9,30.07,WSW,251,0.0,0.0,74,0.00,,,0.00,Wunderground v.1.15,2013-07-06 01:39:00,
2013-07-05 21:44:00,74.5,66.1,30.07,WSW,250,0.0,0.0,75,0.00,,,0.00,Wunderground v.1.15,2013-07-06 01:44:00,
2013-07-05 21:50:00,74.3,66.2,30.07,WSW,251,0.0,0.0,76,0.00,,,0.00,Wunderground v.1.15,2013-07-06 01:50:00,
2013-07-05 21:55:00,74.2,66.5,30.07,WSW,250,0.0,2.0,77,0.00,,,0.00,Wunderground v.1.15,2013-07-06 01:55:00,
2013-07-05 21:57:00,74.2,66.9,30.07,SW,225,0.0,2.0,78,0.00,,,0.00,Wunderground v.1.15,2013-07-06 01:57:00,
2013-07-05 22:03:00,74.2,66.9,30.07,SW,225,1.0,1.0,78,0.00,,,0.00,Wunderground v.1.15,2013-07-06 02:03:00,
2013-07-05 22:08:00,74.1,67.2,30.07,SW,218,1.0,3.0,79,0.00,,,0.00,Wunderground v.1.15,2013-07-06 02:08:00,
2013-07-05 22:14:00,74.0,67.4,30.07,SW,218,0.0,2.0,80,0.00,,,0.00,Wunderground v.1.15,2013-07-06 02:14:00,
2013-07-05 22:20:00,73.9,67.3,30.07,SW,218,0.0,0.0,80,0.00,,,0.00,Wunderground v.1.15,2013-07-06 02:20:00,
2013-07-05 22:25:00,73.7,67.5,30.07,SW,218,0.0,1.0,81,0.00,,,0.00,Wunderground v.1.15,2013-07-06 02:25:00,
2013-07-05 22:31:00,73.5,67.7,30.08,SW,218,0.0,0.0,82,0.00,,,0.00,Wunderground v.1.15,2013-07-06 02:31:00,
2013-07-05 22:36:00,73.4,67.6,30.08,SW,218,0.0,0.0,82,0.00,,,0.00,Wunderground v.1.15,2013-07-06 02:36:00,
2013-07-05 22:42:00,73.3,67.8,30.08,SW,218,0.0,1.0,83,0.00,,,0.00,Wunderground v.1.15,2013-07-06 02:42:00,
2013-07-05 22:47:00,73.2,67.7,30.07,SW,218,0.0,1.0,83,0.00,,,0.00,Wunderground v.1.15,2013-07-06 02:47:00,
2013-07-05 22:53:00,73.1,68.0,30.08,SW,218,0.0,0.0,84,0.00,,,0.00,Wunderground v.1.15,2013-07-06 02:53:00,
2013-07-05 22:58:00,73.0,67.9,30.07,SW,218,0.0,0.0,84,0.00,,,0.00,Wunderground v.1.15,2013-07-06 02:58:00,
2013-07-05 23:04:00,73.0,67.9,30.07,SW,218,0.0,0.0,84,0.00,,,0.00,Wunderground v.1.15,2013-07-06 03:04:00,
2013-07-05 23:09:00,72.9,67.8,30.07,SW,218,0.0,0.0,84,0.00,,,0.00,Wunderground v.1.15,2013-07-06 03:09:00,
2013-07-05 23:15:00,72.7,67.6,30.07,SW,218,0.0,0.0,84,0.00,,,0.00,Wunderground v.1.15,2013-07-06 03:15:00,
2013-07-05 23:20:00,72.6,67.8,30.08,SW,218,0.0,0.0,85,0.00,,,0.00,Wunderground v.1.15,2013-07-06 03:20:00,
2013-07-05 23:25:00,72.5,67.7,30.08,SSW,213,1.0,3.0,85,0.00,,,0.00,Wunderground v.1.15,2013-07-06 03:25:00,
2013-07-05 23:31:00,72.5,67.7,30.08,SSW,213,1.0,1.0,85,0.00,,,0.00,Wunderground v.1.15,2013-07-06 03:31:00,
2013-07-05 23:36:00,72.5,67.7,30.08,SW,214,1.0,2.0,85,0.00,,,0.00,Wunderground v.1.15,2013-07-06 03:36:00,
2013-07-05 23:42:00,72.5,67.7,30.08,SSW,192,1.0,1.0,85,0.00,,,0.00,Wunderground v.1.15,2013-07-06 03:42:00,
2013-07-05 23:47:00,72.5,67.7,30.08,SSW,198,0.0,3.0,85,0.00,,,0.00,Wunderground v.1.15,2013-07-06 03:47:00,
2013-07-05 23:53:00,72.5,67.7,30.08,SSW,200,0.0,1.0,85,0.00,,,0.00,Wunderground v.1.15,2013-07-06 03:53:00,
2013-07-05 23:59:00,72.4,67.6,30.08,SSW,200,0.0,2.0,85,0.00,,,0.00,Wunderground v.1.15,2013-07-06 03:59:00,